| time (UTC) | temp F | wind direction | speed MPH | gust MPH | rain 1hr in | rain 24hr in | rain mn in | humidity % | barometer mb |
| 20260507192704 | 64 | 295 | 2.0 | 3.0 | 0.00 | 0.00 | 0.00 | 29 | 1020.9 |
| 20260507191200 | 62 | 281 | 1.0 | 2.0 | 0.00 | 0.00 | 0.00 | 30 | 1021.1 |
| 20260507185659 | 63 | 236 | 0.0 | 0.0 | 0.00 | 0.00 | 0.00 | 25 | 1020.9 |
| 20260507184157 | 62 | 240 | 0.0 | 0.0 | 0.00 | 0.00 | 0.00 | 24 | 1021.1 |
| 20260507182653 | 61 | 252 | 0.0 | 0.0 | 0.00 | 0.00 | 0.00 | 26 | 1021.4 |
| 20260507181148 | 61 | 275 | 0.0 | 0.0 | 0.00 | 0.00 | 0.00 | 30 | 1021.6 |
| 20260507175649 | 61 | 265 | 1.0 | 2.0 | 0.00 | 0.00 | 0.00 | 26 | 1021.9 |
| 20260507174147 | 60 | 287 | 0.0 | 3.0 | 0.00 | 0.00 | 0.00 | 26 | 1021.7 |
| 20260507172643 | 60 | 281 | 3.0 | 5.0 | 0.00 | 0.00 | 0.00 | 24 | 1022.2 |
| 20260507171138 | 59 | 272 | 0.0 | 0.0 | 0.00 | 0.00 | 0.00 | 25 | 1022.1 |
| 20260507165633 | 59 | 272 | 0.0 | 0.0 | 0.00 | 0.00 | 0.00 | 25 | 1022.5 |
| 20260507164129 | 59 | 195 | 0.0 | 0.0 | 0.00 | 0.00 | 0.00 | 27 | 1022.5 |
| 20260507162625 | 57 | 241 | 0.0 | 0.0 | 0.00 | 0.00 | 0.00 | 29 | 1022.6 |
| 20260507161121 | 57 | 264 | 2.0 | 3.0 | 0.00 | 0.00 | 0.00 | 30 | 1022.7 |
| 20260507155621 | 56 | 279 | 3.0 | 5.0 | 0.00 | 0.00 | 0.00 | 33 | 1023.0 |
| 20260507154118 | 55 | 282 | 3.0 | 5.0 | 0.00 | 0.00 | 0.00 | 36 | 1022.5 |
| 20260507152613 | 54 | 277 | 4.0 | 7.0 | 0.00 | 0.00 | 0.00 | 38 | 1023.0 |
| 20260507151109 | 53 | 286 | 4.0 | 5.0 | 0.00 | 0.00 | 0.00 | 39 | 1022.7 |
| 20260507145603 | 52 | 244 | 4.0 | 5.0 | 0.00 | 0.00 | 0.00 | 39 | 1022.8 |
| 20260507144101 | 51 | 275 | 5.0 | 6.0 | 0.00 | 0.00 | 0.00 | 39 | 1022.7 |
| 20260507142600 | 49 | 262 | 5.0 | 6.0 | 0.00 | 0.00 | 0.00 | 42 | 1022.6 |
| 20260507141057 | 48 | 267 | 5.0 | 6.0 | 0.00 | 0.00 | 0.00 | 44 | 1022.7 |
| 20260507135553 | 46 | 283 | 3.0 | 5.0 | 0.00 | 0.00 | 0.00 | 48 | 1022.6 |
| 20260507134049 | 44 | 288 | 4.0 | 6.0 | 0.00 | 0.00 | 0.00 | 55 | 1022.6 |
| 20260507132545 | 41 | 281 | 1.0 | 2.0 | 0.00 | 0.00 | 0.00 | 60 | 1022.4 |
| 20260507131042 | 40 | 288 | 4.0 | 5.0 | 0.00 | 0.00 | 0.00 | 58 | 1022.5 |
| 20260507125541 | 38 | 280 | 0.0 | 0.0 | 0.00 | 0.00 | 0.00 | 60 | 1022.4 |
| 20260507124038 | 37 | 299 | 0.0 | 0.0 | 0.00 | 0.00 | 0.00 | 62 | 1022.0 |
| 20260507122533 | 35 | 296 | 0.0 | 0.0 | 0.00 | 0.00 | 0.00 | 62 | 1022.1 |
| 20260507121032 | 35 | 287 | 4.0 | 5.0 | 0.00 | 0.00 | 0.00 | 61 | 1021.7 |
| 20260507115528 | 34 | 292 | 0.0 | 0.0 | 0.00 | 0.00 | 0.00 | 65 | 1021.6 |
| 20260507114023 | 33 | 288 | 0.0 | 0.0 | 0.00 | 0.00 | 0.00 | 67 | 1022.1 |
| 20260507112521 | 31 | 277 | 0.0 | 0.0 | 0.00 | 0.00 | 0.00 | 72 | 1022.0 |
| 20260507111016 | 31 | 274 | 0.0 | 0.0 | 0.00 | 0.00 | 0.00 | 72 | 1021.9 |
| 20260507105512 | 31 | 276 | 0.0 | 0.0 | 0.00 | 0.00 | 0.00 | 73 | 1021.9 |
| 20260507104008 | 30 | 269 | 0.0 | 0.0 | 0.00 | 0.00 | 0.00 | 75 | 1021.9 |
| 20260507102504 | 31 | 275 | 0.0 | 0.0 | 0.00 | 0.00 | 0.00 | 75 | 1022.0 |
| 20260507100958 | 31 | 294 | 0.0 | 0.0 | 0.00 | 0.00 | 0.00 | 76 | 1022.2 |
| 20260507095457 | 30 | 270 | 0.0 | 0.0 | 0.00 | 0.00 | 0.00 | 77 | 1022.1 |
| 20260507093952 | 30 | 260 | 0.0 | 0.0 | 0.00 | 0.00 | 0.00 | 78 | 1022.2 |
| 20260507092450 | 30 | 241 | 0.0 | 0.0 | 0.00 | 0.00 | 0.00 | 78 | 1022.4 |
| 20260507090945 | 29 | 281 | 0.0 | 0.0 | 0.00 | 0.00 | 0.00 | 83 | 1022.4 |
| 20260507085441 | 28 | 287 | 0.0 | 0.0 | 0.00 | 0.00 | 0.00 | 87 | 1022.5 |
| 20260507083938 | 28 | 274 | 1.0 | 2.0 | 0.00 | 0.00 | 0.00 | 89 | 1022.6 |
| 20260507082438 | 30 | 267 | 0.0 | 0.0 | 0.00 | 0.00 | 0.00 | 91 | 1022.6 |
| 20260507080935 | 29 | 285 | 3.0 | 7.0 | 0.00 | 0.00 | 0.00 | 94 | 1022.7 |
| 20260507075434 | 28 | 285 | 5.0 | 7.0 | 0.00 | 0.00 | 0.00 | 96 | 1023.0 |
| 20260507073931 | 28 | 276 | 0.0 | 0.0 | 0.00 | 0.00 | 0.00 | 96 | 1023.2 |
| 20260507072428 | 26 | 272 | 0.0 | 0.0 | 0.00 | 0.00 | 0.00 | 96 | 1023.5 |
| 20260507070924 | 26 | 274 | 0.0 | 0.0 | 0.00 | 0.00 | 0.00 | 96 | 1023.5 |
| 20260507065421 | 24 | 301 | 0.0 | 0.0 | 0.00 | 0.00 | 0.00 | 96 | 1023.6 |
| 20260507063920 | 24 | 325 | 0.0 | 0.0 | 0.00 | 0.00 | 0.00 | 96 | 1023.6 |
| 20260507062416 | 25 | 297 | 0.0 | 0.0 | 0.00 | 0.00 | 0.00 | 96 | 1023.6 |
| 20260507060916 | 27 | 307 | 0.0 | 0.0 | 0.00 | 0.00 | 0.00 | 96 | 1023.9 |
| 20260507055416 | 28 | 308 | 0.0 | 0.0 | 0.00 | 0.02 | 0.02 | 95 | 1023.5 |
| 20260507053913 | 29 | 265 | 0.0 | 0.0 | 0.00 | 0.02 | 0.02 | 95 | 1023.6 |
| 20260507052412 | 29 | 224 | 0.0 | 0.0 | 0.00 | 0.02 | 0.02 | 95 | 1023.6 |
| 20260507050909 | 29 | 213 | 0.0 | 0.0 | 0.00 | 0.02 | 0.02 | 95 | 1023.5 |
| 20260507045404 | 29 | 270 | 0.0 | 0.0 | 0.00 | 0.02 | 0.02 | 95 | 1023.6 |
| 20260507043900 | 29 | 263 | 0.0 | 0.0 | 0.00 | 0.02 | 0.02 | 95 | 1023.5 |
| 20260507042355 | 30 | 248 | 0.0 | 0.0 | 0.00 | 0.02 | 0.02 | 95 | 1023.7 |
| 20260507040852 | 30 | 291 | 0.0 | 0.0 | 0.00 | 0.02 | 0.02 | 95 | 1023.5 |
| 20260507035350 | 30 | 296 | 0.0 | 0.0 | 0.00 | 0.02 | 0.02 | 95 | 1023.5 |
| 20260507033848 | 30 | 295 | 0.0 | 0.0 | 0.00 | 0.02 | 0.02 | 94 | 1023.5 |
| 20260507032344 | 31 | 226 | 0.0 | 0.0 | 0.00 | 0.02 | 0.02 | 94 | 1023.1 |
| 20260507030840 | 31 | 184 | 0.0 | 0.0 | 0.00 | 0.02 | 0.02 | 93 | 1023.1 |
| 20260507025337 | 32 | 342 | 0.0 | 0.0 | 0.00 | 0.02 | 0.02 | 92 | 1023.2 |
| 20260507023834 | 33 | 208 | 0.0 | 0.0 | 0.00 | 0.02 | 0.02 | 91 | 1023.1 |
| 20260507022329 | 32 | 205 | 0.0 | 0.0 | 0.00 | 0.02 | 0.02 | 89 | 1022.8 |
| 20260507020825 | 33 | 187 | 0.0 | 0.0 | 0.00 | 0.02 | 0.02 | 87 | 1022.7 |
| 20260507015322 | 33 | 238 | 0.0 | 0.0 | 0.00 | 0.02 | 0.02 | 85 | 1022.8 |
| 20260507013817 | 34 | 73 | 0.0 | 0.0 | 0.00 | 0.02 | 0.02 | 83 | 1022.8 |
| 20260507012314 | 36 | 214 | 0.0 | 1.0 | 0.00 | 0.02 | 0.02 | 77 | 1022.5 |
| 20260507010814 | 38 | 45 | 0.0 | 0.0 | 0.00 | 0.02 | 0.02 | 74 | 1022.7 |
| 20260507005309 | 37 | 222 | 0.0 | 0.0 | 0.00 | 0.02 | 0.02 | 73 | 1022.5 |
| 20260507003806 | 37 | 235 | 0.0 | 0.0 | 0.00 | 0.02 | 0.02 | 74 | 1022.6 |
| 20260507002306 | 38 | 206 | 0.0 | 0.0 | 0.00 | 0.02 | 0.02 | 70 | 1022.4 |
| 20260507000802 | 39 | 163 | 0.0 | 2.0 | 0.00 | 0.02 | 0.02 | 68 | 1022.5 |
| 20260506235256 | 39 | 141 | 0.0 | 0.0 | 0.00 | 0.02 | 0.02 | 65 | 1022.1 |
| 20260506233754 | 38 | 300 | 0.0 | 0.0 | 0.00 | 0.02 | 0.02 | 66 | 1022.5 |
| 20260506232253 | 37 | 321 | 0.0 | 0.0 | 0.00 | 0.02 | 0.02 | 66 | 1022.4 |
| 20260506230751 | 39 | 326 | 0.0 | 0.0 | 0.00 | 0.02 | 0.02 | 63 | 1022.2 |
| 20260506225248 | 37 | 13 | 0.0 | 0.0 | 0.00 | 0.02 | 0.02 | 67 | 1022.2 |
| 20260506223743 | 38 | 329 | 0.0 | 0.0 | 0.00 | 0.02 | 0.02 | 71 | 1022.4 |
| 20260506222238 | 37 | 38 | 0.0 | 0.0 | 0.00 | 0.02 | 0.02 | 71 | 1022.2 |
| 20260506220737 | 39 | 351 | 1.0 | 2.0 | 0.00 | 0.02 | 0.02 | 69 | 1022.2 |
| 20260506215236 | 38 | 19 | 0.0 | 0.0 | 0.00 | 0.02 | 0.02 | 73 | 1022.6 |
| 20260506213734 | 36 | 335 | 0.0 | 0.0 | 0.00 | 0.02 | 0.02 | 80 | 1022.6 |
| 20260506212229 | 35 | 6 | 0.0 | 1.0 | 0.00 | 0.02 | 0.02 | 88 | 1022.4 |
| 20260506210724 | 33 | 339 | 2.0 | 5.0 | 0.00 | 0.02 | 0.02 | 92 | 1022.5 |
| 20260506205219 | 34 | 47 | 1.0 | 3.0 | 0.00 | 0.02 | 0.02 | 95 | 1022.5 |
| 20260506203718 | 33 | 43 | 0.0 | 0.0 | 0.00 | 0.02 | 0.02 | 96 | 1022.4 |
| 20260506202214 | 33 | 356 | 4.0 | 8.0 | 0.00 | 0.02 | 0.02 | 96 | 1022.7 |
| 20260506200711 | 32 | 5 | 2.0 | 5.0 | 0.00 | 0.02 | 0.02 | 96 | 1022.7 |
| 20260506195206 | 32 | 8 | 1.0 | 2.0 | 0.00 | 0.02 | 0.02 | 96 | 1022.4 |
| 20260506193704 | 33 | 343 | 1.0 | 3.0 | 0.00 | 0.02 | 0.02 | 96 | 1022.7 |